Showing default

FORMOSAT7-6/COSMIC2-6, 44353

Orbit data source: Space-Track

FORMOSAT7-6/COSMIC2-6, 44353 is a payload satellite owned by NSPO (TW) in LEO that was launched on Tue, 25 Jun 2019 UTC via an FALCON HEAVY launch vehicle from the Air Force Eastern Test Range (AFETR). Payload-class satellites include a variety of spacecraft equipped with specific instruments for various scientific and technological missions. These include communications satellites like Starlink; space stations such as the ISS; scientific satellites like the Hubble; Earth observation satellites from companies like Planet Labs, Umbra, and HawkEye 360; GPS; miniature CubeSats for education and research; and military/defense satellites.

Not visible in the next 10 days
Identifier
44353, 2019-036Q
Orbit
LEO
Country
Flag of TWTW / TWN
Related business
Manufacturer
SSTL (Astrium)
Mission
Operational Civil Weather
Bus & Motor
SSTL-100, Unknown motor
Mass
278 kg wet, 278 kg dry
Launch date (UTC)
2019-06-25 (6 years ago)
Launch vehicle
FALCON HEAVY
Launch site
Air Force Eastern Test Range (AFETR)
Object type
Payload
Rocket body
Debris
Shape & HBR
Box + 1 Pan, 1.5 m
Radar Cross Section
2.189 m², Large (>1 m²)

Expand to show TLE details & history
Last TLE update: 12 hours ago

TLE from 12 hours ago
0 FORMOSAT7-6/COSMIC2-6
1 44353U 19036Q   25286.80133673  .00005222  00000-0  40810-3 0  9999
2 44353  23.9970 192.0076 0001314 355.2098   4.8391 14.97810400344850
Epoch: 2025-10-13T19:13Z
TLE epoch observation values (Epoch: 2025-10-13T19:13:55.493Z)
Latitude
0.00002°
Longitude
-119.07249°
Altitude
570.641 km
Speed
7.579 km/s
True Right ascension
12h 48m 01s
True Declination
0° 00' 00"
Sunlit
Object was in daylight at epoch
Visualization orbit readout
Latitude
Unknown
Longitude
Unknown
Altitude
Unknown
Speed
Unknown
Apparent Right ascension
Unknown
Apparent Declination
Unknown
Sunlit
N/A
Visualization observer readout
Local Sidereal Time
01:26:51
Azimuth
Unknown
Elevation
Unknown
Doppler factor
Unknown
Orbital elements
Apogee altitude
579.348 km
Perigee altitude
577.519 km
Semi-major axis
6,956.57 km
Eccentricity
0.00013
Inclination
23.997°
RAAN
192.0076°
Arg. of periapsis
355.2098°
True anomaly
4.84037°
Mean anomaly
4.8391°
Eccentric anomaly
4.83974°
Mean motion
3.74068 °/min
Orbital period
96.24 mins
BSTAR
0.0004081
Loading maneuver chart data...
Computing Atmospheric mass density...
Loading historical data...
Loading historical data...
Loading historical data...
Loading historical data...
Loading historical data...
Loading historical data...
Loading historical data...

Documentation

Showing up to 5 results
|